When you browse on this site, cookies collect data to enhance your experience and personalize the content and advertising you see.
Visit our Privacy Policy to learn more. By continuing to use the site, you agree to this use of cookies and data.
  • In Netherlands
  • List of Countries
  • For 7 days
  • Water Temperature
  • Satellite Maps
  • Weather Map
  • Weather Widgets
  • user-avatar
    Login

    Hourly Weather Elbasan

    Today, 20 March, Wednesday

    Time Temperature Precipitation Wind Pressure Humidity
    00:00 +12°C° 0 mm 1 mps 737 mmHg 81%
    01:00 +12°C° 0 mm 1 mps 737 mmHg 82%
    02:00 +12°C° 0 mm 1 mps 737 mmHg 82%
    03:00 +11°C° 0 mm 1 mps 737 mmHg 82%
    04:00 +11°C° 0 mm 1 mps 737 mmHg 81%
    05:00 +12°C° 0 mm 1 mps 738 mmHg 79%
    06:00 +12°C° 0 mm 2 mps 738 mmHg 77%
    07:00 +13°C° 0 mm 2 mps 738 mmHg 75%
    08:00 +15°C° 0 mm 2 mps 738 mmHg 65%
    09:00 +17°C° 0 mm 2 mps 738 mmHg 56%
    10:00 +19°C° 0 mm 2 mps 739 mmHg 47%
    11:00 +20°C° 0 mm 2 mps 739 mmHg 43%
    12:00 +21°C° 0 mm 2 mps 739 mmHg 40%
    13:00 +23°C° 0 mm 2 mps 739 mmHg 37%
    14:00 +23°C° 0 mm 2 mps 739 mmHg 39%
    15:00 +21°C° 0 mm 2 mps 739 mmHg 40%
    16:00 +21°C° 0 mm 2 mps 739 mmHg 42%
    17:00 +19°C° 0.1 mm 2 mps 739 mmHg 48%
    18:00 +17°C° 0.1 mm 2 mps 739 mmHg 55%
    19:00 +16°C° 0.1 mm 2 mps 740 mmHg 61%
    20:00 +15°C° 0 mm 2 mps 740 mmHg 61%
    21:00 +14°C° 0 mm 3 mps 740 mmHg 61%
    22:00 +13°C° 0 mm 3 mps 741 mmHg 61%
    23:00 +13°C° 0 mm 3 mps 741 mmHg 62%

    Tomorrow, 21 March, Thursday

    Time Temperature Precipitation Wind Pressure Humidity
    00:00 +12°C° 0 mm 3 mps 741 mmHg 63%
    01:00 +12°C° 0 mm 3 mps 741 mmHg 64%
    02:00 +11°C° 0 mm 3 mps 741 mmHg 65%
    03:00 +11°C° 0 mm 4 mps 741 mmHg 67%
    04:00 +11°C° 0 mm 4 mps 741 mmHg 68%
    05:00 +11°C° 0 mm 4 mps 742 mmHg 68%
    06:00 +11°C° 0 mm 4 mps 742 mmHg 68%
    07:00 +11°C° 0 mm 4 mps 742 mmHg 68%
    08:00 +13°C° 0 mm 4 mps 742 mmHg 61%
    09:00 +15°C° 0 mm 4 mps 742 mmHg 54%
    10:00 +18°C° 0 mm 4 mps 742 mmHg 48%
    11:00 +19°C° 0 mm 4 mps 742 mmHg 45%
    12:00 +20°C° 0 mm 4 mps 742 mmHg 43%
    13:00 +21°C° 0 mm 4 mps 742 mmHg 40%
    14:00 +20°C° 0 mm 4 mps 742 mmHg 42%
    15:00 +20°C° 0 mm 4 mps 741 mmHg 43%
    16:00 +19°C° 0 mm 5 mps 741 mmHg 45%
    17:00 +17°C° 0 mm 4 mps 741 mmHg 49%
    18:00 +15°C° 0 mm 4 mps 741 mmHg 54%
    19:00 +13°C° 0 mm 3 mps 742 mmHg 58%
    20:00 +13°C° 0 mm 3 mps 742 mmHg 60%
    21:00 +12°C° 0 mm 3 mps 742 mmHg 61%
    22:00 +12°C° 0 mm 3 mps 743 mmHg 63%
    23:00 +11°C° 0 mm 3 mps 743 mmHg 64%

    Day after tomorrow, 22 March, Friday

    Time Temperature Precipitation Wind Pressure Humidity
    00:00 +11°C° 0 mm 3 mps 743 mmHg 66%
    01:00 +11°C° 0 mm 3 mps 743 mmHg 67%
    02:00 +10°C° 0 mm 3 mps 743 mmHg 68%
    03:00 +10°C° 0 mm 3 mps 743 mmHg 70%
    04:00 +10°C° 0 mm 3 mps 743 mmHg 71%
    05:00 +10°C° 0 mm 3 mps 743 mmHg 71%
    06:00 +10°C° 0 mm 3 mps 743 mmHg 70%
    07:00 +11°C° 0 mm 3 mps 743 mmHg 69%
    08:00 +13°C° 0 mm 3 mps 743 mmHg 62%
    09:00 +16°C° 0 mm 3 mps 743 mmHg 54%
    10:00 +18°C° 0 mm 3 mps 743 mmHg 47%
    11:00 +19°C° 0 mm 3 mps 743 mmHg 44%
    12:00 +19°C° 0 mm 3 mps 742 mmHg 41%
    13:00 +20°C° 0 mm 3 mps 742 mmHg 38%
    14:00 +20°C° 0 mm 3 mps 742 mmHg 39%
    15:00 +20°C° 0 mm 3 mps 741 mmHg 39%
    16:00 +20°C° 0 mm 2 mps 741 mmHg 40%
    17:00 +18°C° 0 mm 2 mps 741 mmHg 46%
    18:00 +16°C° 0 mm 2 mps 741 mmHg 52%
    19:00 +14°C° 0 mm 2 mps 741 mmHg 58%
    20:00 +14°C° 0 mm 2 mps 741 mmHg 59%
    21:00 +13°C° 0 mm 2 mps 742 mmHg 61%
    22:00 +13°C° 0 mm 2 mps 742 mmHg 62%
    23:00 +12°C° 0 mm 2 mps 742 mmHg 62%

    23 March, Saturday

    Time Temperature Precipitation Wind Pressure Humidity
    00:00 +12°C° 0 mm 2 mps 742 mmHg 63%
    01:00 +12°C° 0 mm 2 mps 742 mmHg 64%
    02:00 +10°C° 0 mm 2 mps 741 mmHg 65%
    03:00 +10°C° 0 mm 2 mps 741 mmHg 65%
    04:00 +10°C° 0 mm 2 mps 741 mmHg 66%
    05:00 +10°C° 0 mm 3 mps 741 mmHg 65%
    06:00 +11°C° 0 mm 3 mps 741 mmHg 64%
    07:00 +11°C° 0 mm 3 mps 741 mmHg 64%
    08:00 +13°C° 0 mm 3 mps 741 mmHg 56%
    09:00 +17°C° 0 mm 3 mps 741 mmHg 48%
    10:00 +19°C° 0 mm 3 mps 741 mmHg 40%
    11:00 +20°C° 0 mm 3 mps 741 mmHg 38%
    12:00 +21°C° 0 mm 2 mps 741 mmHg 36%
    13:00 +21°C° 0 mm 2 mps 740 mmHg 33%
    14:00 +21°C° 0 mm 2 mps 740 mmHg 35%
    15:00 +21°C° 0 mm 2 mps 740 mmHg 37%
    16:00 +20°C° 0 mm 2 mps 740 mmHg 39%
    17:00 +19°C° 0 mm 2 mps 740 mmHg 46%
    18:00 +18°C° 0 mm 1 mps 740 mmHg 54%
    19:00 +15°C° 0 mm 1 mps 740 mmHg 61%
    20:00 +14°C° 0 mm 1 mps 740 mmHg 61%
    21:00 +14°C° 0 mm 1 mps 741 mmHg 61%
    22:00 +14°C° 0 mm 2 mps 741 mmHg 61%
    23:00 +13°C° 0 mm 2 mps 741 mmHg 60%

    24 March, Sunday

    Time Temperature Precipitation Wind Pressure Humidity
    00:00 +13°C° 0 mm 2 mps 741 mmHg 60%
    01:00 +13°C° 0 mm 2 mps 741 mmHg 60%
    02:00 +12°C° 0 mm 2 mps 741 mmHg 60%
    03:00 +12°C° 0 mm 2 mps 741 mmHg 60%
    04:00 +12°C° 0 mm 2 mps 740 mmHg 60%
    05:00 +12°C° 0 mm 2 mps 740 mmHg 60%
    06:00 +13°C° 0 mm 2 mps 741 mmHg 60%
    07:00 +13°C° 0 mm 2 mps 741 mmHg 60%
    08:00 +16°C° 0 mm 1 mps 741 mmHg 53%
    09:00 +19°C° 0 mm 1 mps 741 mmHg 46%
    10:00 +21°C° 0 mm 1 mps 741 mmHg 39%
    11:00 +22°C° 0 mm 1 mps 740 mmHg 38%
    12:00 +21°C° 0 mm 2 mps 740 mmHg 37%
    13:00 +23°C° 0 mm 2 mps 739 mmHg 36%
    14:00 +21°C° 0 mm 2 mps 739 mmHg 39%
    15:00 +21°C° 0 mm 2 mps 738 mmHg 42%
    16:00 +20°C° 0 mm 3 mps 738 mmHg 44%
    17:00 +18°C° 0 mm 2 mps 738 mmHg 52%
    18:00 +16°C° 0 mm 1 mps 738 mmHg 59%
    19:00 +13°C° 0 mm 0 mps 738 mmHg 66%
    20:00 +13°C° 0 mm 0 mps 738 mmHg 66%
    21:00 +13°C° 0 mm 0 mps 738 mmHg 67%
    22:00 +12°C° 0 mm 0 mps 738 mmHg 67%
    23:00 +12°C° 0 mm 0 mps 738 mmHg 67%

    25 March, Monday

    Time Temperature Precipitation Wind Pressure Humidity
    00:00 +12°C° 0 mm 0 mps 737 mmHg 67%
    01:00 +13°C° 0 mm 1 mps 737 mmHg 67%
    02:00 +12°C° 0 mm 1 mps 737 mmHg 68%
    03:00 +12°C° 0 mm 1 mps 737 mmHg 68%
    04:00 +12°C° 0 mm 1 mps 737 mmHg 68%
    05:00 +13°C° 0 mm 1 mps 737 mmHg 66%
    06:00 +13°C° 0 mm 1 mps 737 mmHg 63%
    07:00 +14°C° 0 mm 1 mps 737 mmHg 61%
    08:00 +16°C° 0 mm 1 mps 737 mmHg 56%
    09:00 +19°C° 0 mm 1 mps 737 mmHg 51%
    10:00 +20°C° 0 mm 1 mps 736 mmHg 46%
    11:00 +20°C° 0 mm 2 mps 736 mmHg 46%
    12:00 +20°C° 0 mm 2 mps 736 mmHg 46%
    13:00 +21°C° 0 mm 3 mps 735 mmHg 46%
    14:00 +20°C° 0.2 mm 3 mps 735 mmHg 50%
    15:00 +19°C° 0.2 mm 3 mps 734 mmHg 54%
    16:00 +19°C° 0.2 mm 3 mps 734 mmHg 59%
    17:00 +17°C° 0.1 mm 2 mps 734 mmHg 68%
    18:00 +15°C° 0.1 mm 1 mps 734 mmHg 77%
    19:00 +14°C° 0.1 mm 1 mps 733 mmHg 86%
    20:00 +13°C° 0 mm 1 mps 734 mmHg 88%
    21:00 +12°C° 0 mm 0 mps 734 mmHg 89%
    22:00 +11°C° 0 mm 0 mps 734 mmHg 91%
    23:00 +11°C° 0 mm 0 mps 733 mmHg 91%
    Show more